www.pogodaiklimat.ru

Погода и климат >> Архив погоды >> ОАЭ >> Sharjah


ПОГОДА в Sharjah

  • Прогноз погоды в Sharjah
  • Монитор погоды в Sharjah
  • Климат города

АРХИВ ПОГОДЫ в Sharjah

Время (UTC), дата Ветер
(напр.,м/с)
 
Видим.   Явления Облачность Т
(С)
Тd
(С)
f
(%)
Тe
(С)
Тes
(С)
Комфортность P
(гПа)
Po
(гПа)
Тmin
(С)
Tmax
(С)
R
(мм)
R24
(мм)
S
(см)
15 9.10 СЗ 3 10 км ясно +32.4 +22.0 54 +41 +41 опасность
перегрева
1008.5 1004.5
21 9.10 СВ 1 10 км ясно +27.9 +19.7 61 +34 +34 очень
душно
1009.5 1005.5
00 10.10 СВ 1 10 км ясно +25.5 +19.7 70 +31 +31 очень
душно
1009.0 1004.9
06 10.10 Ю 3 10 км ясно +35.5 +10.1 21 +34 +43 очень
жарко
1011.9 1007.9 +24.6
12 10.10 СЗ 5 10 км ясно +35.6 +17.5 34 +39 +41 очень
душно
1008.0 1004.1
15 10.10 С 4 10 км ясно +32.8 +18.7 43 +38 +38 очень
душно
1008.9 1004.9
18 10.10 В 3 10 км ясно +29.6 +9.1 28 +29 +29 жарко 1010.1 1006.0 +39.9
21 10.10 В 3 10 км ясно +27.6 +10.1 33 +28 +28 жарко 1010.0 1005.9
00 11.10 В 1 10 км ясно +25.7 +9.2 35 +26 +26 жарко 1010.0 1006.0
03 11.10 ЮВ 3 10 км ясно +25.7 +11.2 40 +27 +27 жарко 1011.4 1007.3
09 11.10 ЮВ 4 10 км ясно +38.3 +5.2 13 +35 +45 очень
жарко
1009.8 1005.9
12 11.10 СЗ 5 10 км ясно +35.8 +16.6 32 +38 +41 очень
душно
1008.6 1004.7
15 11.10 С 2 10 км ясно +31.7 +20.5 52 +39 +39 очень
душно
1010.1 1006.1
18 11.10 В 3 10 км ясно +28.1 +2.5 19 +26 +26 жарко 1011.0 1007.0 +39.6
00 12.10 В 1 10 км ясно +25.8 -0.7 17 +24 +24 комфорт 1010.7 1006.6
03 12.10 Ю 2 10 км ясно +27.1 +13.9 44 +29 +29 жарко 1012.2 1008.1
06 12.10 СВ 2 10 км ясно +33.4 +18.2 41 +38 +48 очень
душно
1012.9 1008.9 +23.1
09 12.10 В 3 10 км ясно +38.8 +19.5 33 +35 +48 очень
жарко
1010.8 1006.9
12 12.10 СЗ 6 10 км ясно +34.4 +19.4 41 +40 +41 очень
душно
1010.0 1006.0
15 12.10 С 3 10 км ясно +31.2 +19.5 50 +37 +37 очень
душно
1011.1 1007.1
18 12.10 ЮВ 3 10 км ясно +30.7 +9.1 26 +30 +30 жарко 1012.1 1008.1 +39.1
21 12.10 ЮВ 2 10 км ясно +25.0 +1.0 21 +24 +24 комфорт 1011.7 1007.7
00 13.10 ЮВ 1 10 км ясно +23.3 +0.6 22 +22 +22 комфорт 1012.1 1007.9
03 13.10 Ю 3 10 км ясно +26.1 +4.0 24 +25 +25 комфорт 1013.6 1009.6
06 13.10 Ю 3 10 км ясно +32.8 +2.1 14 +30 +38 жарко 1014.8 1010.8 +21.9
09 13.10 С 1 10 км ясно +36.3 +1.6 11 +33 +49 жарко 1013.0 1009.0
12 13.10 СЗ 6 10 км ясно +34.7 +12.3 26 +35 +36 очень
жарко
1011.5 1007.6
15 13.10 С 2 10 км ясно +30.9 +16.5 42 +34 +34 душно 1012.0 1008.3
21 13.10 СВ 3 10 км ясно +24.5 +16.9 63 +28 +28 душно 1013.1 1009.0
00 14.10 ЮВ 3 10 км ясно +22.8 +6.7 35 +23 +23 комфорт 1013.4 1009.3
03 14.10 штиль 0 10 км ясно +22.9 +13.3 55 +26 +26 жарко 1015.2 1011.1
06 14.10 Ю 6 10 км ясно +32.2 +19.1 46 +38 +42 очень
душно
1016.1 1012.1 +21.8
09 14.10 Ю 8 10 км ясно +36.5 +14.2 26 +37 +39 очень
жарко
1013.6 1009.6
15 14.10 С 3 10 км ясно +31.3 +23.0 61 +41 +41 опасность
перегрева
1012.9 1008.9
18 14.10 СВ 1 10 км ясно +29.0 +22.5 68 +38 +38 очень
душно
1014.1 1010.0 +38.1
21 14.10 В 2 10 км ясно +26.2 +22.5 80 +34 +34 очень
душно
1013.8 1009.7
00 15.10 Ю 4 10 км ясно +27.8 +23.2 76 +37 +37 очень
душно
1013.7 1009.6
03 15.10 Ю 2 10 км 3/3
[Cb calv Ac cuf Ci sp]
+27.1 +22.5 76 +36 +36 очень
душно
1014.7 1010.6
06 15.10 ЮЗ 6 10 км ясно +32.3 +17.2 41 +36 +40 очень
душно
1015.4 1011.4 +25.9
09 15.10 З 6 10 км 3/0
[Ac trans Ci fib]
+35.2 +18.1 36 +39 +44 очень
душно
1009.2 1013.1
12 15.10 З 7 10 км 1/1 1200 м
[Cu hum]
+33.6 +20.8 47 +41 +42 опасность
перегрева
1012.6 1008.6
15 15.10 З 7 10 км 3/0
[Ci fib]
+31.3 +23.3 63 +42 +42 опасность
перегрева
1013.3 1009.3
18 15.10 СЗ 3 10 км ясно +30.8 +23.7 66 +42 +42 опасность
перегрева
1014.3 1010.3 +36.5
21 15.10 ЮВ 2 10 км 3/3 1200 м
[Sc]
+29.1 +23.2 71 +39 +39 очень
душно
1013.5 1009.4
00 16.10 ЮВ 4 10 км ясно +27.8 +22.8 74 +37 +37 очень
душно
1012.7 1008.6
06 16.10 ЮЗ 1 10 км ясно +31.4 +23.9 64 +43 +54 опасность
перегрева
1015.2 1011.2 +25.2
09 16.10 З 5 10 км 4/4 1200 м
[Sc]
+33.5 +22.9 54 +44 +48 опасность
перегрева
1013.0 1009.0
12 16.10 З 5 10 км 4/4 1200 м
[Cu hum]
+32.5 +21.9 54 +41 +42 опасность
перегрева
1011.7 1007.6

 

Местоположение метеостанции Sharjah (ОАЭ): широта 25.33 долгота 55.52 высота над уровнем моря 33 м.

В архиве по умолчанию представлена погода в Sharjah за последнюю неделю. Архивные данные за месяц целиком и за предыдущие месяцы, начиная с января 2011 года, Вы можете получить, выбрав интересующий диапазон дат из раскрывающегося списка и нажав кнопку "Ввод!".


*Определитесь, кто Вы:
робот инопланетянин человек

Внимание! Время в таблицах - всемирное. Для получения местного времени необходимо прибавить поправку, которая в Sharjah равна 4 ч.

Смотрите также архив погоды в соседних городах и на ближайших метеорологических станциях:

Погода в Dubai (ОАЭ) (21 км)
Погода в Ras Al Khaimah Int Airport (ОАЭ) (52 км)
Погода в Dubai Al Maktoum Int Airport (ОАЭ) (60 км)
Погода в Diba (Оман) (80 км)
Погода в Fujairah (ОАЭ) (85 км)
Погода в Abu Musa Island (Иран) (89 км)
Погода в Sirri Island (Иран) (117 км)
Погода в Khasab Airport (Оман) (117 км)
Погода в Al Ain Int Airport (ОАЭ) (118 км)
Погода в Khasab (Оман) (122 км)

Пояснения к столбцам:

Ветер - указаны скорость ветра в м/с - средняя за 10 мин, порывы в срок и между сроками (в фигурных скобках) и направление, откуда дует ветер: С - северный, СВ - северо-восточный, В - восточный, ЮВ - юго-восточный, Ю - южный, ЮЗ - юго-западный, З - западный, СЗ - северо-западный.
Видимость - горизонтальная дальность видимости в метрах или километрах. При видимости от 1 до 10 км при отсутствии осадков обычно наблюдается дымка, при ухудшении видимости до 1 км и менее - туман. В сухую погоду видимость может ухудшаться дымом, пылью или мглою.
Явления - указаны атмосферные явления, наблюдавшиеся в срок или в последний час перед сроком; фигурными скобками обозначены явления, наблюдавшиеся между сроками (за 1-3 часа до срока); квадратными скобками обозначены град или гололедные отложения с указанием их диаметра в мм.
Облачность - указаны через наклонную черту общая и нижняя облачность в баллах и высота нижней границы облаков в метрах; квадратными скобками обозначены формы облаков: Ci - перистые, Cs - перисто-слоистые, Cc - перисто-кучевые, Ac - высококучевые, As - высокослоистые, Sc - слоисто-кучевые, Ns - слоисто-дождевые, Cu - кучевые, Cb - кучево-дождевые. Подробнее классификацию облаков см. в Атласе облаков (PDF).
T - Температура воздуха - температура, измеренная на высоте 2 м над землей.
Td - Температура точки росы - температура, при понижении до которой содержащийся в воздухе водяной пар достигнет насыщения.
f - Относительная влажность воздуха - влажноcть воздуха, измеренная на высоте 2 м над землей.
Te - Эффективная температура - температура, которую ощущает одетый по сезону человек в тени. Характеристика душности погоды. При расчете учитывается влияние влажности воздуха и скорости ветра на теплоощущения человека.
Tes - Эффективная температура на солнце - температура, которую ощущает человек, с поправкой на солнечный нагрев. Характеристика знойности погоды. Зависит от высоты солнца над горизонтом, облачности и скорости ветра. Ночью, в пасмурную погоду, а также при ветре 12 м/с и более поправка равна нулю.
P - Атмосферное давление - приведенное к уровню моря атмосферное давление.
Po - Атмосферное давление - измеренное на уровне метеостанции атмосферное давление.
Tmin - Минимальная температура - минимум температуры воздуха на высоте 2 м над землей.
Tmax - Максимальная температура - максимум температуры воздуха на высоте 2 м над землей.
R - Количество осадков - Количество выпавших осадков за период времени, мм. При наведении курсора мыши на число - период времени, за который выпало указанное количество осадков.
R24 - Количество осадков - Количество выпавших осадков за 24 часа, мм.
S - Снежный покров - Высота снежного покрова, см. При наведении курсора мыши на число - состояние снежного покрова и степень покрытия местности в баллах.